Weather History for KIML - October, 2011

Change the Weather History Date:

Thursday, October 13, 2011

  Actual Average Record
Temperature  
Mean Temperature 54 °F 52 °F  
Max Temperature 71 °F 66 °F 90 °F (1996)
Min Temperature 36 °F 38 °F 20 °F (1986)
Degree Days  
Heating Degree Days 11 13  
Month to date heating degree days 76 139  
Cooling Degree Days 0 0  
Month to date cooling degree days 17 3  
Year to date cooling degree days 1096 960  
Growing Degree Days 4 (Base 50)    
Moisture  
Dew Point 32 °F    
Average Humidity 48    
Maximum Humidity 76    
Minimum Humidity 20    
Precipitation  
Precipitation 0.00 in 0.05 in 0.66 in (1957)
Sea Level Pressure  
Sea Level Pressure 29.98 in    
Wind  
Wind Speed 9 mph (NW)    
Max Wind Speed 18 mph    
Max Gust Speed 24 mph    
Visibility 10 miles    
Events      
T = Trace of Precipitation, MM = Missing Value Source: NWS Daily Summary

Daily Weather History Graph

Daily Weather History Graph

Search for Another Location

Airport or City:

Trip Planner

Search our weather history database for the weather conditions in past years. The results will help you decide how hot, cold, wet, or windy it might be!

Date:

Astronomy

Oct. 13, 2011 Rise Set
Actual Time 6:55 AM MDT 6:09 PM MDT
Civil Twilight 6:27 AM MDT 6:37 PM MDT
Nautical Twilight 5:56 AM MDT 7:08 PM MDT
Astronomical Twilight 5:24 AM MDT 7:40 PM MDT
Moon 6:45 PM MDT (10/13) 8:29 AM MDT (10/13)
Length of Visible Light 12h 09m
Length of Day
11h 14m
Full, 98% of the Moon is Illuminated
Oct 13
Full
Oct 19
Last Quarter
Oct 26
New
Nov 2
First Quarter
Nov 10
Full

Hourly Weather History & Observations

Time (MDT) Temp. Windchill Dew Point Humidity Pressure Visibility Wind Dir Wind Speed Gust Speed Precip Events Conditions
12:53 AM 43.0 °F 38.8 °F 30.9 °F 62% 30.04 in 10.0 mi West 6.9 mph - N/A   Clear
1:53 AM 41.0 °F 36.4 °F 30.9 °F 67% 30.05 in 10.0 mi West 6.9 mph - N/A   Clear
2:53 AM 39.9 °F 34.5 °F 30.9 °F 70% 30.04 in 10.0 mi West 8.1 mph - N/A   Clear
3:53 AM 39.0 °F 32.8 °F 30.9 °F 73% 30.04 in 10.0 mi West 9.2 mph - N/A   Clear
4:53 AM 39.0 °F 34.0 °F 30.0 °F 70% 30.04 in 10.0 mi West 6.9 mph - N/A   Clear
5:53 AM 37.0 °F 32.4 °F 30.0 °F 76% 30.05 in 10.0 mi WNW 5.8 mph - N/A   Clear
6:53 AM 37.0 °F 30.4 °F 30.0 °F 76% 30.06 in 10.0 mi West 9.2 mph - N/A   Clear
7:53 AM 39.2 °F 33.6 °F 30.2 °F 70% 30.04 in 10.0 mi West 8.1 mph - N/A   Clear
8:53 AM 46.9 °F - 34.0 °F 61% 30.06 in 10.0 mi West 5.8 mph - N/A   Clear
9:53 AM 54.0 °F - 36.0 °F 51% 30.03 in 10.0 mi WSW 9.2 mph - N/A   Clear
10:53 AM 64.9 °F - 34.0 °F 32% 29.98 in 10.0 mi West 9.2 mph - N/A   Clear
11:53 AM 68.0 °F - 30.9 °F 25% 29.97 in 10.0 mi NNW 17.3 mph 23.0 mph N/A   Clear
12:53 PM 70.0 °F - 30.0 °F 23% 29.93 in 10.0 mi NW 13.8 mph 20.7 mph N/A   Clear
1:53 PM 70.0 °F - 28.9 °F 22% 29.91 in 10.0 mi WNW 13.8 mph - N/A   Clear
2:53 PM 70.0 °F - 30.0 °F 23% 29.89 in 10.0 mi WNW 9.2 mph - N/A   Clear
3:53 PM 71.1 °F - 28.9 °F 21% 29.89 in 10.0 mi NNW 12.7 mph - N/A   Clear
4:53 PM 69.1 °F - 28.9 °F 22% 29.90 in 10.0 mi NW 10.4 mph - N/A   Clear
5:53 PM 62.6 °F - 35.6 °F 37% 29.91 in 10.0 mi NNW 8.1 mph - N/A   Clear
6:53 PM 55.9 °F - 33.1 °F 42% 29.94 in 10.0 mi North 5.8 mph - N/A   Clear
7:53 PM 52.0 °F - 35.1 °F 53% 29.95 in 10.0 mi North 8.1 mph - N/A   Clear
8:53 PM 57.0 °F - 32.0 °F 39% 29.95 in 10.0 mi North 15.0 mph - N/A   Clear
9:53 PM 53.6 °F - 33.8 °F 47% 29.99 in 10.0 mi Calm Calm - N/A   Clear
10:53 PM 51.1 °F - 33.1 °F 50% 29.99 in 10.0 mi NE 3.5 mph - N/A   Clear
11:53 PM 48.0 °F - 37.0 °F 66% 29.99 in 10.0 mi North 4.6 mph - N/A   Clear